Overview Statistics Trail Chart Weather Telemetry Raw packets
 

This is the latest recevied weather packets stored in our database for station/object IU1OLT-6. If no packets are shown the sender has not sent any weather packets the latest 10 day(s).

<< 5 6 7 8 9 10 11 >>
Time Temp. Humidity Pressure Rain* Wind** Luminosity Snow
1788536288 18.33° C 49% 1016.6 hPa 0 mm - - -
1788535328 18.33° C 52% 1016.8 hPa 0 mm - - -
1788534368 18.89° C 49% 1016.7 hPa 0 mm - - -
1788533408 18.33° C 58% 1017 hPa 0 mm - - -
1788532448 18.89° C 56% 1017.1 hPa 0 mm - - -
1788531488 18.89° C 64% 1017.2 hPa 0 mm - - -
1788530528 18.89° C 64% 1017.4 hPa 0 mm - - -
1788529568 19.44° C 68% 1017.2 hPa 0 mm - - -
1788528609 19.44° C 64% 1017.2 hPa 0 mm - - -
1788527648 19.44° C 64% 1017.5 hPa 0 mm - - -
1788526688 19.44° C 58% 1017.5 hPa 0 mm - - -
1788525728 20° C 55% 1017.8 hPa 0 mm - - -
1788524768 19.44° C 53% 1017.7 hPa 0 mm - - -
1788523808 20° C 57% 1017.8 hPa 0 mm - - -
1788522848 19.44° C 60% 1017.9 hPa 0 mm - - -
1788521888 19.44° C 60% 1018 hPa 0 mm - - -
1788520928 19.44° C 57% 1018.1 hPa 0 mm - - -
1788519968 20° C 53% 1018.1 hPa 0 mm - - -
1788519008 20° C 56% 1018.1 hPa 0 mm - - -
1788518096 20° C 49% 1018.1 hPa 0 mm - - -
1788517184 19.44° C 46% 1018.3 hPa 0 mm - - -
1788516224 20° C 47% 1018.3 hPa 0 mm - - -
1788515264 20° C 47% 1018.3 hPa 0 mm - - -
1788514304 20.56° C 45% 1018.4 hPa 0 mm - - -
1788513348 20° C 41% 1018.5 hPa 0 mm - - -

* Rain latest hour (hover to see other rain measurements)
** Current wind speed in m/s (hover to see current wind gust speed)